Angleton, TX

3:31 AM CDT on March 27, 2017 (GMT -0500)
Brazoria County

Weather History for KLBX - March, 2013

Change the Weather History Date:

Wednesday, March 20, 2013

  Actual Average Record
Temperature  
Mean Temperature 62 °F -  
Max Temperature 73 °F 69 °F 82 °F (2017)
Min Temperature 51 °F 53 °F 42 °F (2001)
Degree Days  
Heating Degree Days 2    
Growing Degree Days 12 (Base 50)    
Moisture  
Dew Point 53 °F    
Average Humidity 68    
Maximum Humidity 92    
Minimum Humidity 29    
Precipitation  
Precipitation 0.00 in - - ()
Sea Level Pressure  
Sea Level Pressure 30.06 in    
Wind  
Wind Speed 10 mph (NE)    
Max Wind Speed 22 mph    
Max Gust Speed 29 mph    
Visibility 10 miles    
Events      
Averages and records for this station are not official NWS values.
T = Trace of Precipitation, MM = Missing Value Source: NWS Daily Summary

Daily Weather History Graph

Daily Weather History Graph

Search for Another Location

Airport or City:

Trip Planner

Search our weather history database for the weather conditions in past years. The results will help you decide how hot, cold, wet, or windy it might be!

Date:

Astronomy

Mar. 20, 2013 Rise Set
Actual Time 7:25 AM CDT 7:33 PM CDT
Civil Twilight 7:01 AM CDT 7:57 PM CDT
Nautical Twilight 6:34 AM CDT 8:24 PM CDT
Astronomical Twilight 6:06 AM CDT 8:52 PM CDT
Moon 1:33 PM CDT (3/20) 2:40 AM CDT (3/20)
Length of Visible Light 12h 55m
Length of Day
12h 08m
First Quarter, 59% of the Moon is Illuminated
Mar 20
First Quarter
Mar 27
Full
Apr 2
Last Quarter
Apr 10
New
Apr 18
First Quarter

Hourly Weather History & Observations

Time (CDT) Temp. Dew Point Humidity Pressure Visibility Wind Dir Wind Speed Gust Speed Precip Events Conditions
12:21 AM 66.2 °F 62.6 °F 88% 29.94 in 9.0 mi East 4.6 mph - N/A   Overcast
12:53 AM 66.9 °F 63.0 °F 87% 29.94 in 9.0 mi East 4.6 mph - N/A   Overcast
1:53 AM 66.0 °F 63.0 °F 90% 29.96 in 9.0 mi NNE 4.6 mph - N/A   Overcast
2:53 AM 66.0 °F 63.0 °F 90% 29.99 in 8.0 mi North 5.8 mph - N/A   Overcast
3:26 AM 66.2 °F 62.6 °F 88% 29.99 in 9.0 mi NNE 10.4 mph - N/A   Overcast
3:53 AM 66.9 °F 62.1 °F 84% 29.99 in 10.0 mi NNE 10.4 mph - N/A   Overcast
4:00 AM 66.2 °F 62.6 °F 88% 29.99 in 10.0 mi NNE 10.4 mph - N/A   Overcast
4:09 AM 66.2 °F 62.6 °F 88% 29.99 in 10.0 mi NE 12.7 mph 18.4 mph N/A   Overcast
4:18 AM 66.2 °F 60.8 °F 83% 29.99 in 10.0 mi NE 13.8 mph - N/A   Overcast
4:38 AM 66.2 °F 59.0 °F 78% 30.00 in 10.0 mi NNE 17.3 mph 24.2 mph N/A   Overcast
4:53 AM 66.0 °F 55.0 °F 68% 30.01 in 10.0 mi NNE 17.3 mph 26.5 mph N/A   Overcast
5:53 AM 64.0 °F 41.0 °F 43% 30.10 in 10.0 mi NNE 21.9 mph 28.8 mph N/A   Overcast
6:53 AM 62.1 °F 45.0 °F 53% 30.10 in 10.0 mi NNE 17.3 mph 24.2 mph 0.00 in   Mostly Cloudy
7:53 AM 60.1 °F 48.9 °F 67% 30.16 in 10.0 mi North 10.4 mph - N/A   Overcast
8:53 AM 62.1 °F 50.0 °F 65% 30.08 in 10.0 mi East 11.5 mph 18.4 mph N/A   Clear
9:53 AM 63.0 °F 53.1 °F 70% 30.13 in 10.0 mi NNE 15.0 mph - N/A   Clear
10:53 AM 68.0 °F 55.0 °F 63% 30.14 in 10.0 mi North 15.0 mph - N/A   Partly Cloudy
11:49 AM 68.0 °F 53.6 °F 60% 30.16 in 10.0 mi NNE 16.1 mph 25.3 mph N/A   Mostly Cloudy
11:53 AM 69.1 °F 55.0 °F 61% 30.16 in 10.0 mi NNE 19.6 mph 25.3 mph N/A   Mostly Cloudy
12:30 PM 68.0 °F 53.6 °F 60% 30.16 in 10.0 mi NNE 18.4 mph 25.3 mph N/A   Scattered Clouds
12:53 PM 69.1 °F 52.0 °F 54% 30.16 in 10.0 mi NNE 16.1 mph 27.6 mph N/A   Clear
1:53 PM 70.0 °F 48.9 °F 47% 30.14 in 10.0 mi NE 15.0 mph 27.6 mph N/A   Clear
2:53 PM 73.0 °F 46.9 °F 39% 30.11 in 10.0 mi NE 13.8 mph 24.2 mph N/A   Clear
3:53 PM 73.0 °F 41.0 °F 31% 30.08 in 10.0 mi ENE 13.8 mph 23.0 mph N/A   Clear
4:53 PM 73.9 °F 39.9 °F 29% 30.07 in 10.0 mi NE 12.7 mph 20.7 mph N/A   Clear
5:53 PM 71.1 °F 48.9 °F 45% 30.07 in 10.0 mi East 9.2 mph - N/A   Clear
6:53 PM 68.0 °F 50.0 °F 52% 30.06 in 10.0 mi ESE 8.1 mph - N/A   Clear
7:53 PM 61.0 °F 50.0 °F 67% 30.06 in 10.0 mi SSE 5.8 mph - N/A   Clear
8:53 PM 55.9 °F 50.0 °F 80% 30.06 in 10.0 mi Calm Calm - N/A   Clear
9:53 PM 53.1 °F 48.9 °F 86% 30.07 in 10.0 mi Calm Calm - N/A   Clear
10:53 PM 52.0 °F 48.9 °F 89% 30.07 in 10.0 mi Calm Calm - N/A   Clear
11:53 PM 51.1 °F 48.9 °F 92% 30.05 in 10.0 mi Calm Calm - N/A   Clear